Location: Boiro
(42.6475°N, 8.8834°W)
Time: 02:12:57
(UTC+01:00)

S-56A Canister/Altair - Pass Details

Date: 05 December 2021
Orbit: 633 x 2499 km, 38.9° (Epoch: 18 January)

Event Time Altitude Azimuth Distance (km) Brightness Sun altitude
Exits shadow 05:56:59 22° 158° (SSE) 1,520 9.2 -31.1°
Drops below altitude 10° 05:58:52 10° 141° (SE) 2,090 10.2 -30.7°
Sets 06:01:09 0° 131° (SE) 2,935 11.2 -30.3°
